Regional Weather Roundup
Issued by NWS Sioux Falls, SD

Home | Current Version | Previous Version | Text Only | Print | Product List | Glossary Off
Versions: 1 2 3 4 5 6 7 8 9 10 11 12 13 14 15 16 17 18 19 20 21 22 23 24 25 26 27 28 29 30 31 32 33 34 35 36 37 38 39 40 41 42 43 44 45 46 47 48 49 50

000
ASUS43 KFSD 010310
RWRFSD

WEATHER ROUNDUP FOR SE SOUTH DAKOTA/SW MINNESOTA/NW IOWA
NATIONAL WEATHER SERVICE SIOUX FALLS SD
1000 PM CDT TUE SEP 30 2014

NOTE: "FAIR" INDICATES FEW OR NO CLOUDS BELOW 12,000 FEET WITH NO
SIGNIFICANT WEATHER AND OR OBSTRUCTIONS TO VISIBILITY.


SDZ038>040-050-052>070-010400-
SOUTHEAST SOUTH DAKOTA

CITY           SKY/WX    TMP DP  RH WIND       PRES   REMARKS
CHAMBERLAIN    CLEAR     54  49  83 SE3       29.66R
HURON          CLEAR     65  49  56 S10       29.66R
MADISON        CLOUDY    63  63 100 S18G28    29.74R
MITCHELL       PTCLDY    65  60  84 S16       29.69R
SIOUX FALLS    CLOUDY    64  60  87 S20       29.76R
WINNER         FAIR      59  47  64 S8        29.67R
YANKTON        CLOUDY    64  61  88 SE16      29.74R
$$

MNZ071-072-080-081-089-090-097-098-010400-
SOUTHWEST MINNESOTA

CITY           SKY/WX    TMP DP  RH WIND       PRES   REMARKS
FAIRMONT       CLOUDY    59  52  77 SE14      29.84R
JACKSON        CLOUDY    59  55  88 S9        29.83S
LUVERNE        PTCLDY    61  59  94 S13G20    29.78R
MARSHALL       CLOUDY    61  55  82 S16       29.74F
MONTEVIDEO     PTCLDY    59  55  88 S13G20    29.75S
PIPESTONE      PTCLDY    61  57  88 S18       29.76R
REDWOOD FALLS  MOCLDY    60  56  86 SE17      29.78F
TRACY          PTCLDY    60  58  92 S13G20    29.77S
WINDOM         CLOUDY    59  57  94 SE12      29.81F
WORTHINGTON    PTCLDY    59  57  94 SE10G21   29.81S
$$

IAZ001>003-012>014-020>022-031-032-NEZ013-014-SDZ071-010400-
NORTHWEST IOWA

CITY           SKY/WX    TMP DP  RH WIND       PRES   REMARKS
CHEROKEE       CLOUDY    61  60  98 SE10      29.82S
DENISON        CLOUDY    64  64 100 CALM      29.79F
ESTHERVILLE    MOCLDY    58  56  93 SE15      29.84R
LE MARS          N/A     61  59  94 SE10G18   29.79R
ORANGE CITY    PTCLDY    63  57  82 SE10G18   29.79S
SHELDON        PTCLDY    61  59  94 SE15      29.80R
SIOUX CITY     MOCLDY    64  62  93 SE14      29.78S
SPENCER        CLOUDY    60  57  89 SE14G24   29.82F
STORM LAKE     CLOUDY    61  59  94 SE10      29.84S FOG
$$

ABBREVIATIONS USED IN REMARKS
   TC - TEMPERATURE IN CELSIUS
  WCI - WIND CHILL INDEX
   HX - HEAT INDEX
  VSB - VISIBILITY



USA.gov is the U.S. government's official web portal to all federal, state and local government web resources and services.